Hourly Weather Kerns

Today, 5 August, Thursday

Time Temperature Precipitation Wind Pressure Humidity
00:00 +18°C° 0 mm 3 mps 763 mmHg 78%
01:00 +18°C° 0 mm 3 mps 763 mmHg 75%
02:00 +18°C° 0 mm 4 mps 762 mmHg 72%
03:00 +17°C° 0 mm 4 mps 762 mmHg 69%
04:00 +16°C° 0 mm 5 mps 762 mmHg 66%
05:00 +16°C° 0 mm 5 mps 763 mmHg 62%
06:00 +16°C° 0 mm 5 mps 763 mmHg 59%
07:00 +15°C° 0 mm 5 mps 763 mmHg 55%
08:00 +19°C° 0 mm 5 mps 764 mmHg 47%
09:00 +22°C° 0 mm 6 mps 764 mmHg 39%
10:00 +26°C° 0 mm 6 mps 764 mmHg 31%
11:00 +27°C° 0 mm 6 mps 764 mmHg 33%
12:00 +27°C° 0 mm 6 mps 763 mmHg 36%
13:00 +28°C° 0 mm 7 mps 763 mmHg 38%
14:00 +27°C° 0 mm 6 mps 762 mmHg 41%
15:00 +27°C° 0 mm 6 mps 762 mmHg 44%
16:00 +26°C° 0 mm 6 mps 762 mmHg 47%
17:00 +23°C° 0 mm 6 mps 762 mmHg 56%
18:00 +21°C° 0 mm 5 mps 763 mmHg 65%
19:00 +19°C° 0 mm 5 mps 763 mmHg 73%
20:00 +17°C° 0 mm 5 mps 764 mmHg 77%
21:00 +17°C° 0 mm 4 mps 764 mmHg 81%
22:00 +15°C° 0 mm 4 mps 764 mmHg 85%
23:00 +15°C° 0 mm 4 mps 764 mmHg 86%

Tomorrow, 6 August, Friday

Time Temperature Precipitation Wind Pressure Humidity
00:00 +14°C° 0 mm 4 mps 764 mmHg 88%
01:00 +14°C° 0 mm 3 mps 764 mmHg 89%
02:00 +14°C° 0 mm 3 mps 764 mmHg 88%
03:00 +14°C° 0 mm 3 mps 764 mmHg 87%
04:00 +13°C° 0 mm 4 mps 763 mmHg 86%
05:00 +13°C° 0 mm 4 mps 764 mmHg 85%
06:00 +13°C° 0 mm 4 mps 764 mmHg 85%
07:00 +13°C° 0 mm 4 mps 764 mmHg 84%
08:00 +18°C° 0 mm 4 mps 765 mmHg 72%
09:00 +21°C° 0 mm 5 mps 765 mmHg 60%
10:00 +25°C° 0 mm 5 mps 765 mmHg 49%
11:00 +25°C° 0 mm 5 mps 764 mmHg 46%
12:00 +26°C° 0 mm 5 mps 764 mmHg 43%
13:00 +27°C° 0 mm 5 mps 763 mmHg 40%
14:00 +27°C° 0 mm 5 mps 763 mmHg 41%
15:00 +26°C° 0 mm 5 mps 763 mmHg 43%
16:00 +24°C° 0 mm 6 mps 763 mmHg 45%
17:00 +23°C° 0 mm 5 mps 763 mmHg 51%
18:00 +21°C° 0 mm 5 mps 764 mmHg 58%
19:00 +19°C° 0 mm 5 mps 764 mmHg 64%
20:00 +19°C° 0 mm 4 mps 764 mmHg 66%
21:00 +18°C° 0 mm 4 mps 765 mmHg 68%
22:00 +18°C° 0 mm 4 mps 765 mmHg 70%
23:00 +17°C° 0 mm 4 mps 765 mmHg 75%

Day after tomorrow, 7 August, Saturday

Time Temperature Precipitation Wind Pressure Humidity
00:00 +15°C° 0 mm 4 mps 765 mmHg 79%
01:00 +14°C° 0 mm 4 mps 764 mmHg 83%
02:00 +14°C° 0 mm 4 mps 764 mmHg 83%
03:00 +14°C° 0 mm 4 mps 764 mmHg 83%
04:00 +14°C° 0 mm 4 mps 764 mmHg 83%
05:00 +14°C° 0 mm 4 mps 764 mmHg 83%
06:00 +14°C° 0 mm 4 mps 764 mmHg 83%
07:00 +14°C° 0 mm 3 mps 765 mmHg 82%
08:00 +18°C° 0 mm 4 mps 765 mmHg 72%
09:00 +21°C° 0 mm 4 mps 765 mmHg 62%
10:00 +25°C° 0 mm 5 mps 765 mmHg 52%
11:00 +26°C° 0 mm 5 mps 765 mmHg 50%
12:00 +27°C° 0 mm 5 mps 764 mmHg 47%
13:00 +28°C° 0 mm 6 mps 763 mmHg 45%
14:00 +27°C° 0 mm 6 mps 763 mmHg 47%
15:00 +26°C° 0 mm 6 mps 763 mmHg 49%
16:00 +26°C° 0 mm 6 mps 763 mmHg 52%
17:00 +23°C° 0 mm 5 mps 763 mmHg 63%
18:00 +21°C° 0 mm 5 mps 764 mmHg 75%
19:00 +19°C° 0 mm 5 mps 764 mmHg 86%
20:00 +17°C° 0 mm 5 mps 764 mmHg 89%
21:00 +18°C° 0 mm 4 mps 765 mmHg 92%
22:00 +17°C° 0 mm 4 mps 765 mmHg 95%
23:00 +17°C° 0.1 mm 4 mps 765 mmHg 95%

8 August, Sunday

Time Temperature Precipitation Wind Pressure Humidity
00:00 +18°C° 0.1 mm 4 mps 765 mmHg 94%
01:00 +18°C° 0.1 mm 4 mps 764 mmHg 94%
02:00 +18°C° 0.1 mm 4 mps 764 mmHg 94%
03:00 +18°C° 0.1 mm 4 mps 764 mmHg 94%
04:00 +18°C° 0.1 mm 4 mps 763 mmHg 94%
05:00 +19°C° 0.1 mm 4 mps 764 mmHg 94%
06:00 +19°C° 0.1 mm 4 mps 764 mmHg 94%
07:00 +19°C° 0.1 mm 4 mps 764 mmHg 94%
08:00 +21°C° 0.1 mm 4 mps 764 mmHg 86%
09:00 +23°C° 0.1 mm 5 mps 764 mmHg 77%
10:00 +26°C° 0.1 mm 5 mps 764 mmHg 68%
11:00 +27°C° 0 mm 5 mps 764 mmHg 63%
12:00 +28°C° 0 mm 5 mps 763 mmHg 58%
13:00 +29°C° 0 mm 5 mps 762 mmHg 53%
14:00 +28°C° 0.1 mm 5 mps 762 mmHg 56%
15:00 +28°C° 0.1 mm 5 mps 762 mmHg 59%
16:00 +27°C° 0.1 mm 5 mps 762 mmHg 63%
17:00 +25°C° 0.1 mm 5 mps 762 mmHg 73%
18:00 +22°C° 0.1 mm 5 mps 763 mmHg 84%
19:00 +20°C° 0.1 mm 4 mps 763 mmHg 95%
20:00 +20°C° 0.1 mm 4 mps 763 mmHg 96%
21:00 +19°C° 0.1 mm 4 mps 763 mmHg 97%
22:00 +19°C° 0.1 mm 4 mps 764 mmHg 98%
23:00 +19°C° 0.1 mm 4 mps 763 mmHg 97%

9 August, Monday

Time Temperature Precipitation Wind Pressure Humidity
00:00 +20°C° 0.1 mm 4 mps 763 mmHg 97%
01:00 +20°C° 0.1 mm 4 mps 763 mmHg 97%
02:00 +20°C° 0.2 mm 4 mps 763 mmHg 96%
03:00 +20°C° 0.2 mm 4 mps 762 mmHg 96%
04:00 +20°C° 0.2 mm 4 mps 762 mmHg 95%
05:00 +20°C° 0.1 mm 4 mps 762 mmHg 96%
06:00 +20°C° 0.1 mm 4 mps 763 mmHg 96%
07:00 +20°C° 0.1 mm 4 mps 763 mmHg 97%
08:00 +21°C° 0.1 mm 4 mps 763 mmHg 88%
09:00 +23°C° 0.1 mm 5 mps 763 mmHg 80%
10:00 +26°C° 0.1 mm 5 mps 764 mmHg 71%
11:00 +27°C° 0.1 mm 5 mps 763 mmHg 67%
12:00 +28°C° 0.1 mm 5 mps 762 mmHg 63%
13:00 +29°C° 0.1 mm 5 mps 762 mmHg 59%
14:00 +28°C° 0.2 mm 5 mps 762 mmHg 62%
15:00 +28°C° 0.2 mm 5 mps 761 mmHg 65%
16:00 +27°C° 0.2 mm 5 mps 761 mmHg 67%
17:00 +25°C° 0.1 mm 5 mps 761 mmHg 77%
18:00 +22°C° 0.1 mm 4 mps 762 mmHg 86%
19:00 +21°C° 0.1 mm 4 mps 762 mmHg 96%
20:00 +21°C° 0.1 mm 4 mps 762 mmHg 96%
21:00 +20°C° 0.1 mm 4 mps 763 mmHg 97%
22:00 +20°C° 0.1 mm 4 mps 763 mmHg 97%
23:00 +21°C° 0.1 mm 4 mps 763 mmHg 97%

10 August, Tuesday

Time Temperature Precipitation Wind Pressure Humidity
00:00 +21°C° 0.1 mm 4 mps 762 mmHg 96%
01:00 +21°C° 0.1 mm 4 mps 762 mmHg 96%
02:00 +21°C° 0.1 mm 4 mps 762 mmHg 96%
03:00 +21°C° 0.1 mm 4 mps 762 mmHg 95%
04:00 +21°C° 0.1 mm 4 mps 762 mmHg 95%
05:00 +20°C° 0 mm 4 mps 762 mmHg 96%
06:00 +20°C° 0 mm 4 mps 762 mmHg 96%
07:00 +20°C° 0 mm 4 mps 763 mmHg 96%
08:00 +22°C° 0 mm 4 mps 763 mmHg 83%
09:00 +25°C° 0 mm 5 mps 763 mmHg 70%
10:00 +28°C° 0 mm 5 mps 763 mmHg 57%
11:00 +29°C° 0 mm 5 mps 763 mmHg 54%
12:00 +29°C° 0 mm 5 mps 762 mmHg 50%
13:00 +30°C° 0 mm 5 mps 762 mmHg 46%
14:00 +30°C° 0 mm 5 mps 761 mmHg 49%
15:00 +29°C° 0 mm 5 mps 761 mmHg 52%
16:00 +29°C° 0 mm 5 mps 761 mmHg 55%
17:00 +27°C° 0 mm 5 mps 761 mmHg 66%
18:00 +25°C° 0 mm 5 mps 762 mmHg 78%
19:00 +22°C° 0 mm 5 mps 762 mmHg 90%
20:00 +21°C° 0 mm 4 mps 763 mmHg 92%
21:00 +21°C° 0 mm 4 mps 763 mmHg 94%
22:00 +21°C° 0 mm 4 mps 764 mmHg 97%
23:00 +21°C° 0.1 mm 4 mps 763 mmHg 95%
Show more